Location: Sabana Grande
(18.0777°N, 66.9605°W)
Time: 02:53:39
(UTC-04:00)

ACS3 Solar Sail - Pass Details

Date: 25 September 2024
Orbit: 960 x 1033 km, 97.5° (Epoch: 12 October)

Event Time Altitude Azimuth Distance (km) Brightness Sun altitude
Exits shadow 21:18:38 17° 337° (NNW) 2,329 4.0 -42.7°
Drops below altitude 10° 21:20:01 10° 340° (NNW) 2,829 4.5 -43.0°
Sets 21:22:34 0° 343° (NNW) 3,783 5.2 -43.6°
